Location: Newark
(40.9833°N, 0.0333°W)
Time: 03:43:18
(UTC+00:00)

Transit 2A Rocket - Pass Details

Date: 27 October 2020
Orbit: 588 x 914 km, 66.7° (Epoch: 26 November)

Event Time Altitude Azimuth Distance (km) Brightness Sun altitude
Rises 11:28:26 0° 256° (WSW) 3,542 8.5 35.9°
Reaches altitude 10° 11:31:47 10° 274° (W) 2,593 7.8 35.9°
Maximum altitude 11:35:57 19° 318° (NW) 2,001 7.0 36.0°
Drops below altitude 10° 11:40:02 10° 2° (N) 2,520 7.3 36.0°
Sets 11:43:15 0° 20° (NNE) 3,408 7.9 36.0°
